KF4IRC Weather Reports


Display with metric or nautical units.
time (UTC)temp
F
wind
direction
speed
MPH
gust
MPH
rain 1hr
in
rain 24hr
in
rain mn
in
humidity
%
barometer
mb
20210925221530 81 41 0.0 3.0 0.00 0.00 0.00 40 1017.0
20210925220048 82 61 0.0 3.0 0.00 0.00 0.00 39 1016.9
20210925214529 82 35 1.0 3.0 0.00 0.00 0.00 40 1016.8
20210925213109 83 14 1.0 1.0 0.00 0.00 0.00 40 1016.8
20210925211608 83 130 1.0 2.0 0.00 0.00 0.00 40 1016.9
20210925210045 84 39 1.0 4.0 0.00 0.00 0.00 37 1017.0
20210925204529 85 254 1.0 2.0 0.00 0.00 0.00 36 1017.1
20210925203112 86 98 2.0 3.0 0.00 0.00 0.00 32 1017.1
20210925201537 86 89 1.0 2.0 0.00 0.00 0.00 36 1017.1
20210925200055 86 53 0.0 2.0 0.00 0.00 0.00 35 1017.3
20210925194554 86 72 0.0 3.0 0.00 0.00 0.00 36 1017.5
20210925193055 85 34 1.0 2.0 0.00 0.00 0.00 32 1017.6
20210925191542 85 254 1.0 2.0 0.00 0.00 0.00 37 1017.9
20210925190051 85 27 2.0 4.0 0.00 0.00 0.00 34 1018.0
20210925184538 85 85 2.0 3.0 0.00 0.00 0.00 36 1018.1
20210925183106 84 183 0.0 3.0 0.00 0.00 0.00 35 1018.4
20210925181547 83 61 1.0 4.0 0.00 0.00 0.00 39 1018.6
20210925180045 83 52 2.0 5.0 0.00 0.00 0.00 34 1018.6
20210925174549 83 257 1.0 2.0 0.00 0.00 0.00 37 1018.7
20210925173054 82 207 1.0 3.0 0.00 0.00 0.00 43 1018.8
20210925171542 82 18 0.0 2.0 0.00 0.00 0.00 44 1019.1
20210925170034 82 84 1.0 3.0 0.00 0.00 0.00 38 1019.2
20210925164544 81 27 0.0 2.0 0.00 0.00 0.00 43 1019.2
20210925163110 81 234 0.0 2.0 0.00 0.00 0.00 43 1019.3
20210925161538 80 154 0.0 1.0 0.00 0.00 0.00 43 1019.5
20210925160053 79 313 0.0 2.0 0.00 0.00 0.00 45 1019.5
20210925154537 79 164 0.0 3.0 0.00 0.00 0.00 50 1019.5
20210925153102 78 351 0.0 2.0 0.00 0.00 0.00 52 1019.5
20210925151541 76 41 1.0 4.0 0.00 0.00 0.00 51 1019.7
20210925150052 75 42 1.0 2.0 0.00 0.00 0.00 60 1019.8
20210925144535 73 355 0.0 3.0 0.00 0.00 0.00 66 1019.6
20210925143104 71 85 0.0 2.0 0.00 0.00 0.00 69 1019.5
20210925120059 55 132 0.0 0.0 0.00 0.00 0.00 86 1019.3
20210925114539 55 132 0.0 0.0 0.00 0.00 0.00 84 1019.2
20210925113104 55 132 0.0 0.0 0.00 0.00 0.00 84 1018.9
20210925111553 55 132 0.0 0.0 0.00 0.00 0.00 84 1018.7
20210925110032 55 132 0.0 0.0 0.00 0.00 0.00 83 1018.5
20210925104543 55 132 0.0 0.0 0.00 0.00 0.00 83 1018.2
20210925103118 55 132 0.0 0.0 0.00 0.00 0.00 82 1018.2
20210925101536 56 132 0.0 0.0 0.00 0.00 0.00 82 1018.1
20210925100042 56 132 0.0 0.0 0.00 0.00 0.00 82 1018.1
20210925094550 56 132 0.0 0.0 0.00 0.00 0.00 82 1018.0
20210925093051 56 132 0.0 0.0 0.00 0.00 0.00 81 1018.1
20210925091543 56 132 0.0 0.0 0.00 0.00 0.00 81 1018.1
20210925090031 57 133 0.0 0.0 0.00 0.00 0.00 81 1018.1
20210925084547 57 132 0.0 0.0 0.00 0.00 0.00 81 1018.1
20210925083110 57 132 0.0 0.0 0.00 0.00 0.00 81 1018.0
20210925081552 57 132 0.0 0.0 0.00 0.00 0.00 81 1017.8
20210925080040 58 132 0.0 0.0 0.00 0.00 0.00 81 1018.0
20210925074552 58 132 0.0 0.0 0.00 0.00 0.00 80 1018.1
20210925073117 58 132 0.0 0.0 0.00 0.00 0.00 79 1018.1
20210925071537 58 133 0.0 0.0 0.00 0.00 0.00 78 1018.0
20210925070044 58 132 0.0 0.0 0.00 0.00 0.00 77 1017.9
20210925064554 58 132 0.0 0.0 0.00 0.00 0.00 77 1017.8
20210925063050 59 132 0.0 0.0 0.00 0.00 0.00 76 1017.9
20210925061543 59 132 0.0 0.0 0.00 0.00 0.00 75 1017.8
20210925060057 59 132 0.0 0.0 0.00 0.00 0.00 75 1017.8
20210925054540 59 132 0.0 0.0 0.00 0.00 0.00 74 1017.7
20210925053128 59 132 0.0 0.0 0.00 0.00 0.00 74 1017.9
20210925051538 60 132 0.0 0.0 0.00 0.00 0.00 74 1018.0
20210925050049 60 132 0.0 0.0 0.00 0.00 0.00 73 1018.1
20210925044542 60 132 0.0 0.0 0.00 0.00 0.00 73 1018.1
20210925043114 61 132 0.0 0.0 0.00 0.00 0.00 72 1018.2
20210925041540 61 132 0.0 0.0 0.00 0.00 0.00 72 1018.2
20210925040032 61 132 0.0 0.0 0.00 0.00 0.00 71 1018.1
20210925034547 62 132 0.0 0.0 0.00 0.00 0.00 71 1018.1
20210925033109 62 132 0.0 0.0 0.00 0.00 0.00 71 1018.1
20210925031540 63 132 0.0 0.0 0.00 0.00 0.00 71 1018.1
20210925030029 63 132 0.0 0.0 0.00 0.00 0.00 69 1018.1
20210925024545 64 132 0.0 0.0 0.00 0.00 0.00 69 1018.1
20210925023053 64 132 0.0 0.0 0.00 0.00 0.00 68 1018.1
20210925021547 65 133 0.0 0.0 0.00 0.00 0.00 67 1017.8
20210925020037 65 132 0.0 0.0 0.00 0.00 0.00 65 1017.7
20210925014554 66 133 0.0 0.0 0.00 0.00 0.00 65 1017.6
20210925013056 66 132 0.0 0.0 0.00 0.00 0.00 64 1017.4
20210925011551 67 133 0.0 0.0 0.00 0.00 0.00 62 1017.3
20210925010039 68 132 0.0 0.0 0.00 0.00 0.00 61 1017.1
20210925004557 69 133 0.0 0.0 0.00 0.00 0.00 60 1017.1
20210925003118 69 132 0.0 0.0 0.00 0.00 0.00 57 1017.1
20210925001552 70 132 0.0 0.0 0.00 0.00 0.00 55 1017.0
20210925000043 72 132 0.0 0.0 0.00 0.00 0.00 52 1016.9
20210924233104 74 133 0.0 0.0 0.00 0.00 0.00 49 1017.0
20210924231534 75 132 0.0 0.0 0.00 0.00 0.00 47 1017.1
20210924230052 77 132 0.0 2.0 0.00 0.00 0.00 47 1017.1
20210924224539 77 336 0.0 2.0 0.00 0.00 0.00 43 1017.1
20210924223111 78 138 0.0 0.0 0.00 0.00 0.00 43 1016.9